Temperature
9 9 9 9 9 9 9 9 9 9 9 9 9 9 10 10 9 9 10 10 10 10 10 10 10 10 10 10 10 10 10 9 9 9 9 9 9 9 8 8 9 9 9
9 9 9 9 9 9 9 9 9 9 9 9 9 9 9 9 9 9 9 9 10 10 10 10 10 9 9 9 9 9 9 9 9 8 8 8 8 8 8 8 8 8 8
8 8 8 8 9 9 9 8 8 8 8 8 8 8 8 9 9 9 9 9 9 9 9 9 9 9 9 9 9 9 8 8 8 8 7 7 7 7 7 7 7 8 8
7 8 8 8 8 8 8 8 8 8 8 8 8 8 8 8 8 8 8 8 8 8 8 8 8 8 8 8 8 8 8 8 8 7 7 7 7 6 6 6 7 7 7
7 7 7 7 7 7 7 7 7 7 7 7 7 7 7 7 7 7 8 8 8 8 8 8 8 8 8 8 8 8 7 7 7 7 7 6 6 6 6 6 6 6 6
7 7 7 7 7 7 7 7 7 7 7 7 7 7 7 7 7 7 7 7 7 7 7 7 7 7 7 7 7 7 7 7 7 6 6 6 5 5 5 5 5 5 5
6 6 6 6 6 6 6 6 6 6 6 6 6 6 6 6 6 6 7 7 7 7 7 7 7 7 6 6 6 6 6 6 6 6 5 5 5 5 5 5 4 4 4
6 6 6 5 5 5 5 5 5 6 6 6 6 6 6 6 6 6 6 6 6 6 6 6 6 6 6 6 6 5 6 5 5 5 5 5 5 5 4 4 4 3 3
5 5 5 5 5 5 5 5 5 5 5 5 5 5 5 5 5 5 5 5 5 6 6 6 5 5 5 5 5 5 5 5 5 5 5 4 4 4 4 4 3 3 3
5 5 4 4 4 4 4 4 4 4 4 4 4 5 5 5 5 5 5 5 5 5 5 5 5 5 4 4 4 4 4 4 4 4 4 4 4 4 3 3 3 3 3
4 4 4 4 4 3 3 3 3 4 4 4 4 4 4 4 4 4 4 4 4 4 4 4 4 4 4 4 4 4 4 4 4 4 4 4 3 3 3 3 3 2 2
4 3 3 3 3 3 3 3 3 3 3 3 3 3 3 4 4 4 4 4 4 4 4 4 4 3 3 3 3 3 3 3 3 3 3 3 3 2 2 2 2 2 2
3 3 3 3 3 3 3 2 2 2 2 3 3 3 3 3 3 3 3 3 3 3 3 3 3 3 3 3 2 2 3 3 2 2 2 2 2 2 2 2 2 2 2
3 3 3 3 2 2 2 2 2 2 2 2 2 2 2 2 2 2 2 2 2 2 2 2 2 2 2 2 2 2 2 2 2 2 1 1 1 1 1 1 1 1 1
2 2 2 2 2 2 2 1 1 1 1 1 2 2 2 2 2 2 2 1 1 1 2 2 1 1 1 1 1 1 1 1 1 1 1 1 1 1 1 1 1 1 1
2 2 2 2 2 1 1 1 1 1 1 1 1 1 1 1 1 1 1 1 1 1 1 1 1 1 1 1 1 1 1 0 0 0 1 0 1 0 0 0 0 0 0
2 2 1 1 1 1 1 1 1 0 0 0 0 0 0 0 0 0 0 0 0 0 0 0 0 0 0 0 0 -0 -0 -0 -0 -0 -0 -0 0 -0 0 0 -0 -0 -0
2 2 1 1 1 1 0 0 0 0 -0 -0 0 -0 -0 -0 -0 -0 -0 -0 -0 -0 -0 -0 -0 -0 0 -0 -1 -1 -1 -1 -1 -1 -0 -0 -0 -0 -0 -0 -0 -0 -0
2 1 1 1 0 0 -0 -0 -0 -0 -1 -0 -0 -0 -1 -1 -1 -0 -1 -1 -1 -1 -1 -1 -1 -1 -1 -1 -1 -1 -1 -1 -1 -1 -1 -1 -1 -1 -1 -1 -1 -1 -1
1 1 1 0 0 -0 -0 -1 -1 -1 -1 -1 -1 -1 -1 -1 -1 -1 -1 -1 -1 -1 -1 -1 -1 -1 -1 -1 -2 -2 -2 -2 -1 -1 -1 -1 -1 -1 -1 -1 -1 -1 -1
1 0 0 -0 -0 -1 -1 -1 -1 -1 -1 -1 -1 -1 -1 -1 -1 -1 -2 -2 -2 -2 -2 -2 -2 -2 -2 -2 -2 -2 -2 -2 -2 -2 -2 -2 -2 -2 -2 -2 -2 -2 -2
0 -0 -0 -1 -1 -1 -1 -1 -1 -2 -2 -2 -2 -2 -2 -2 -2 -2 -2 -2 -2 -2 -2 -2 -2 -2 -2 -2 -2 -3 -3 -3 -3 -2 -2 -2 -2 -2 -2 -2 -2 -2 -3
-0 -1 -1 -1 -1 -2 -2 -2 -2 -2 -2 -2 -2 -2 -2 -2 -2 -2 -2 -3 -3 -3 -3 -3 -3 -3 -3 -3 -3 -3 -3 -3 -3 -3 -3 -3 -3 -3 -3 -3 -3 -3 -3
-1 -1 -1 -1 -2 -2 -2 -2 -2 -2 -3 -2 -3 -3 -3 -3 -3 -3 -3 -3 -3 -3 -3 -3 -3 -3 -3 -3 -3 -4 -4 -4 -4 -4 -3 -4 -4 -4 -3 -3 -3 -3 -3
-1 -2 -2 -2 -2 -2 -2 -3 -3 -3 -3 -3 -3 -3 -3 -3 -3 -3 -4 -4 -4 -4 -4 -4 -4 -4 -4 -4 -4 -4 -4 -4 -4 -4 -4 -4 -4 -4 -4 -4 -4 -4 -4
-2 -2 -2 -2 -2 -3 -3 -3 -3 -3 -3 -3 -3 -3 -3 -4 -4 -4 -4 -4 -4 -4 -4 -4 -4 -4 -4 -4 -5 -5 -5 -5 -5 -5 -5 -5 -5 -5 -5 -5 -5 -5 -5
Wind_Speed
3 1 1 2 2 2 3 3 2 2 2 1 1 1 1 1 1 2 3 4 4 6 5 3 3 3 2 2 2 1 1 1 1 1 1 2 1 1 1 1 2 1 1
0 1 1 1 2 2 2 3 2 2 1 1 1 1 2 1 1 2 2 3 4 4 4 4 3 3 2 2 2 2 1 1 1 1 1 1 3 2 1 0 0 0 1
3 1 1 2 2 2 2 2 1 2 2 2 2 3 3 2 2 1 0 1 3 3 3 3 3 3 3 3 2 3 2 1 0 1 2 1 2 3 2 1 1 1 1
2 2 2 2 1 1 1 2 2 2 2 2 3 3 3 2 1 1 1 1 2 3 3 3 3 2 2 3 3 2 2 2 1 1 0 0 1 1 2 2 2 2 2
3 2 2 2 2 2 2 2 2 2 2 2 2 3 2 2 1 1 1 1 1 2 2 2 2 2 2 2 2 2 2 2 3 2 1 0 1 0 1 3 3 3 3
2 2 1 2 2 2 2 2 2 2 2 2 2 2 2 2 2 1 1 0 0 1 2 2 1 1 1 2 2 3 3 3 2 2 2 2 1 1 1 2 3 4 4
1 1 2 2 2 2 2 2 2 2 2 1 1 2 2 2 2 2 1 1 0 1 1 1 0 1 1 1 1 2 2 3 3 3 3 3 3 2 2 2 3 3 4
1 1 2 2 1 1 1 1 1 1 2 1 0 0 1 1 1 2 2 2 2 2 1 1 1 1 1 1 1 2 2 2 3 3 3 3 2 2 2 2 2 3 3
0 1 1 2 1 1 0 0 1 1 1 2 1 0 0 0 1 1 1 1 1 1 1 0 1 1 1 1 1 2 2 2 3 3 3 3 3 3 2 2 3 3 4
0 0 0 1 1 1 0 1 1 1 1 1 1 0 0 1 1 1 1 1 1 1 1 1 1 1 1 1 1 1 2 2 2 2 3 3 3 3 3 3 3 4 5
1 1 0 0 0 0 1 1 1 1 1 2 2 1 1 1 0 1 2 2 2 2 2 2 2 2 2 2 2 2 2 2 2 2 3 3 3 3 3 3 3 4 4
1 1 0 0 1 1 1 1 1 1 1 2 2 2 2 1 1 2 2 2 2 2 2 2 3 3 3 3 3 4 3 3 3 3 3 4 3 4 3 3 4 4 4
1 0 0 0 0 1 1 1 1 2 2 2 2 3 2 2 2 3 3 3 3 3 2 2 3 4 4 4 4 4 4 4 4 4 4 4 4 5 4 4 4 4 4
2 1 1 1 1 1 1 1 2 2 2 2 2 3 3 3 3 3 3 3 3 3 3 3 4 4 4 4 4 4 4 4 4 4 5 5 5 5 5 5 5 4 4
2 2 2 2 2 2 2 2 2 2 2 2 3 4 4 3 3 3 3 3 3 4 3 3 3 3 4 4 5 4 4 4 4 4 5 5 6 7 6 5 5 5 5
5 4 3 3 3 3 3 3 3 3 2 3 4 4 3 3 3 3 3 3 3 3 3 4 4 4 4 7 8 5 4 4 4 5 5 5 6 7 9 10 9 8 6
6 5 5 5 5 4 4 4 4 3 3 4 4 4 4 4 4 4 3 4 4 3 4 4 4 5 6 8 8 7 4 4 5 5 5 5 5 6 5 7 9 8 9
6 5 5 4 4 3 3 3 3 3 3 4 4 4 4 4 4 4 4 4 4 4 4 5 5 5 6 8 8 8 4 4 5 5 5 5 5 5 5 5 5 6 6
6 5 5 4 3 3 3 2 3 3 4 4 5 5 4 5 4 4 5 4 4 4 4 4 5 5 7 8 8 7 3 4 5 5 5 5 5 8 8 5 5 6 5
4 4 3 3 3 4 3 3 3 4 5 5 5 5 4 5 5 5 5 4 4 4 4 5 5 6 6 8 8 6 3 3 4 4 5 7 8 9 9 5 4 6 5
4 3 3 3 4 4 3 4 4 5 5 4 4 4 4 5 5 4 4 4 4 4 4 5 5 5 6 7 8 7 3 3 4 4 4 5 9 10 9 7 5 7 6
4 3 3 4 4 3 3 4 6 5 4 4 4 5 4 4 4 4 4 4 4 4 4 4 5 4 5 5 6 7 6 5 4 5 4 5 9 9 9 7 7 8 6
4 4 4 4 4 4 4 6 6 4 3 3 4 4 4 4 3 4 4 4 3 3 4 4 4 4 3 4 7 7 7 7 4 4 7 8 9 8 6 7 8 6 3
5 4 4 4 5 5 5 6 5 4 4 4 4 4 3 3 3 3 3 4 4 4 4 4 4 4 4 4 4 4 4 5 5 4 6 8 8 6 6 6 5 3 3
4 4 5 6 6 5 5 5 5 4 4 4 4 4 3 3 3 3 4 4 5 5 5 5 5 5 5 6 7 5 4 3 4 3 2 2 3 3 3 3 3 3 3
4 4 5 6 6 6 6 5 5 5 4 4 4 3 3 3 3 3 4 6 6 9 9 8 8 6 8 9 9 9 8 8 6 3 2 3 3 4 4 4 4 3 3
Wind_Direction
231 204 175 139 106 96 92 93 90 76 89 88 112 123 135 135 124 97 109 119 132 138 130 124 120 128 151 152 136 116 91 37 35 59 4 340 328 271 238 196 175 191 218
253 88 116 121 126 124 103 92 87 91 104 92 128 143 151 128 112 90 86 125 118 132 140 133 145 147 148 138 133 110 106 59 65 100 80 334 322 327 312 302 184 193 181
191 172 119 96 82 85 105 118 103 95 81 70 82 85 73 63 56 51 82 77 124 127 122 125 132 148 154 163 172 160 146 161 273 80 131 164 242 297 300 313 306 333 318
203 183 153 124 115 98 72 101 109 94 78 86 102 114 127 137 193 194 168 59 79 94 105 121 125 150 165 174 186 174 178 163 187 266 289 183 167 201 292 306 323 314 282
202 171 150 145 124 102 94 73 71 69 67 89 102 118 128 141 119 84 86 70 39 60 72 89 108 156 181 187 191 185 183 186 186 187 198 282 3 87 211 285 309 309 288
196 161 125 102 86 72 73 78 71 47 54 87 101 110 134 139 119 96 114 80 350 3 32 60 67 191 199 196 210 206 196 204 198 196 185 174 181 221 207 256 283 288 292
150 138 110 93 81 70 61 69 91 51 38 78 105 140 152 165 176 182 185 183 240 293 296 3 338 255 245 219 202 204 218 218 209 212 220 215 218 202 207 232 270 287 293
132 156 160 146 130 85 53 53 67 57 38 37 16 126 163 178 202 207 205 211 222 237 280 328 316 302 282 258 221 221 234 230 226 231 224 224 234 221 214 213 223 278 285
121 131 151 145 147 143 143 136 103 52 37 26 14 80 33 208 212 208 215 228 244 248 290 318 340 331 311 277 235 233 251 247 236 233 235 234 232 225 227 218 209 223 259
122 75 118 161 162 159 13 59 90 89 356 -0 354 35 290 245 245 221 214 224 238 246 237 245 269 294 302 287 243 243 255 254 261 250 241 243 244 240 229 224 227 229 239
211 226 277 169 125 55 35 38 49 43 5 352 351 337 304 304 292 260 249 240 241 231 223 230 235 242 250 256 245 244 243 243 258 268 258 255 253 245 242 238 236 238 236
214 201 220 90 81 26 356 339 337 344 327 333 336 320 297 303 288 273 267 255 249 246 239 236 238 245 249 242 235 239 236 237 247 260 262 264 262 252 249 246 245 244 241
197 180 158 58 272 268 285 297 309 307 315 328 324 321 302 285 278 277 277 269 257 254 250 233 233 240 246 243 240 235 235 239 242 244 247 255 256 256 253 248 248 251 255
197 209 244 279 287 283 274 274 290 298 309 315 307 299 292 273 271 277 275 272 265 252 244 241 241 241 245 245 240 236 237 244 247 245 243 247 247 250 254 251 245 249 254
244 242 251 268 279 287 291 291 292 298 305 308 301 291 294 286 282 282 276 272 268 261 246 242 248 247 244 247 243 230 234 241 251 254 252 253 259 261 260 261 249 243 246
241 242 248 254 259 263 267 273 284 290 291 285 284 290 296 295 283 280 280 277 270 263 253 247 245 247 256 268 264 253 226 233 244 256 262 268 266 273 274 273 267 257 248
236 239 242 240 245 250 254 257 268 276 280 280 283 288 288 288 280 281 278 274 268 262 257 254 247 248 257 269 269 266 240 231 240 248 257 271 273 279 272 275 278 273 267
231 241 243 247 248 251 257 265 270 272 269 276 280 279 280 284 280 275 271 269 265 260 257 259 253 252 262 271 269 270 248 239 242 245 246 255 264 273 277 270 272 269 267
229 234 233 236 245 253 257 264 275 272 267 269 272 275 272 276 275 274 273 274 267 266 259 256 250 250 262 269 269 269 239 246 250 252 252 257 259 273 283 279 274 277 279
233 233 230 229 238 247 240 246 261 265 265 269 272 271 266 268 266 266 270 273 268 263 265 261 252 250 257 267 269 269 238 251 260 262 258 263 269 273 277 263 258 269 275
240 235 230 237 244 245 238 247 257 259 263 272 276 272 268 265 261 265 266 268 270 267 264 264 261 254 260 266 267 268 249 244 257 264 266 266 274 277 278 277 259 267 278
248 238 237 252 256 248 236 249 257 260 264 270 275 276 275 273 271 266 270 266 262 260 262 266 269 264 264 269 271 274 272 270 259 263 266 271 281 284 285 284 279 282 285
244 240 233 251 263 255 235 244 257 259 259 267 272 277 280 279 275 264 267 267 256 255 261 262 267 274 270 268 274 275 280 281 278 272 279 284 287 290 286 282 284 284 273
240 236 234 248 262 259 248 243 252 247 239 254 263 268 273 279 278 272 261 256 254 253 256 257 262 268 267 261 259 255 264 273 277 280 280 286 289 291 288 288 289 281 265
250 236 233 245 257 261 259 254 248 236 239 250 254 263 264 262 270 272 261 258 250 251 253 247 248 254 258 263 272 270 258 256 258 274 268 266 278 282 287 291 289 281 276
248 247 247 252 259 259 260 258 248 230 232 246 249 252 258 263 268 276 286 283 277 281 277 272 266 258 263 275 276 278 281 280 275 273 255 262 266 269 277 281 285 280 273
Height
1496 1496 1496 1496 1496 1496 1496 1496 1497 1497 1498 1498 1498 1499 1500 1501 1503 1504 1505 1507 1508 1510 1511 1512 1513 1514 1514 1515 1515 1515 1516 1516 1516 1516 1516 1517 1517 1516 1516 1516 1516 1516 1516
1493 1493 1493 1493 1494 1494 1494 1495 1495 1495 1496 1496 1497 1498 1498 1499 1501 1502 1503 1505 1506 1507 1508 1509 1510 1511 1512 1512 1512 1512 1512 1513 1514 1514 1513 1514 1515 1513 1513 1513 1513 1513 1513
1490 1491 1491 1491 1491 1492 1492 1493 1494 1494 1494 1495 1495 1496 1497 1497 1499 1500 1501 1502 1503 1504 1505 1506 1507 1507 1508 1509 1509 1509 1509 1510 1511 1511 1512 1512 1511 1510 1510 1510 1510 1510 1510
1489 1489 1489 1489 1490 1490 1492 1493 1493 1493 1493 1494 1494 1494 1495 1495 1496 1497 1498 1499 1500 1501 1502 1503 1503 1504 1505 1506 1506 1506 1507 1507 1507 1508 1509 1510 1509 1509 1507 1507 1507 1507 1507
1488 1488 1488 1488 1489 1490 1491 1491 1492 1492 1492 1493 1493 1493 1493 1494 1495 1496 1496 1496 1498 1498 1499 1500 1500 1501 1502 1502 1503 1503 1504 1504 1504 1505 1505 1506 1506 1506 1505 1504 1504 1504 1504
1486 1486 1487 1488 1488 1489 1489 1490 1490 1491 1491 1491 1491 1491 1492 1492 1492 1493 1493 1494 1495 1495 1496 1497 1498 1498 1499 1499 1500 1500 1500 1501 1501 1501 1502 1502 1503 1503 1502 1501 1501 1500 1500
1485 1485 1485 1485 1486 1487 1487 1488 1489 1489 1489 1489 1489 1489 1490 1490 1490 1491 1491 1492 1492 1492 1493 1494 1494 1495 1495 1496 1496 1496 1497 1497 1497 1498 1498 1499 1499 1500 1500 1499 1498 1497 1497
1484 1484 1484 1484 1485 1485 1486 1486 1486 1487 1487 1487 1487 1488 1488 1488 1488 1488 1489 1489 1489 1490 1490 1491 1491 1492 1492 1493 1493 1493 1493 1494 1494 1494 1494 1495 1495 1496 1496 1496 1496 1494 1493
1483 1484 1484 1484 1484 1484 1484 1485 1485 1485 1485 1485 1485 1485 1485 1485 1485 1486 1486 1487 1487 1487 1488 1488 1488 1488 1489 1489 1489 1489 1490 1490 1490 1490 1490 1491 1491 1492 1492 1492 1492 1493 1490
1482 1483 1483 1483 1483 1483 1483 1483 1483 1483 1483 1483 1483 1483 1483 1483 1483 1483 1483 1483 1484 1484 1484 1484 1484 1485 1485 1485 1485 1486 1486 1486 1486 1486 1486 1486 1487 1487 1487 1487 1487 1487 1487
1481 1481 1481 1482 1482 1482 1482 1482 1481 1481 1481 1481 1481 1481 1481 1481 1481 1481 1480 1480 1480 1480 1480 1480 1481 1481 1481 1481 1482 1482 1482 1482 1482 1482 1482 1482 1482 1482 1482 1482 1482 1482 1482
1480 1480 1480 1480 1480 1480 1480 1480 1479 1479 1478 1478 1478 1477 1478 1478 1478 1477 1477 1477 1477 1477 1477 1477 1477 1477 1477 1478 1478 1478 1478 1478 1477 1477 1477 1477 1477 1477 1477 1477 1477 1476 1476
1479 1479 1479 1479 1478 1478 1477 1477 1476 1476 1476 1475 1475 1474 1474 1474 1473 1473 1473 1473 1473 1473 1473 1473 1473 1473 1473 1473 1474 1474 1474 1473 1473 1473 1472 1472 1472 1471 1472 1472 1472 1471 1471
1478 1477 1477 1477 1476 1476 1475 1475 1474 1473 1473 1472 1471 1470 1470 1470 1470 1469 1469 1469 1469 1469 1468 1468 1468 1468 1468 1469 1469 1469 1469 1469 1468 1468 1468 1468 1467 1467 1467 1467 1467 1466 1466
1476 1475 1475 1474 1474 1473 1473 1472 1471 1471 1470 1468 1467 1466 1466 1466 1466 1465 1465 1465 1465 1464 1464 1463 1463 1463 1464 1464 1465 1465 1464 1464 1463 1463 1463 1463 1462 1462 1462 1462 1461 1461 1460
1473 1473 1473 1472 1471 1471 1470 1469 1468 1467 1466 1465 1464 1463 1462 1461 1461 1461 1460 1460 1460 1459 1459 1458 1458 1458 1459 1459 1460 1460 1459 1459 1459 1458 1458 1458 1458 1458 1457 1457 1456 1456 1456
1470 1470 1470 1469 1468 1468 1467 1466 1465 1464 1463 1461 1460 1459 1458 1457 1456 1456 1455 1455 1454 1454 1454 1453 1453 1453 1454 1454 1454 1455 1454 1454 1454 1454 1453 1453 1453 1453 1452 1451 1451 1451 1450
1467 1467 1466 1465 1465 1464 1463 1462 1461 1460 1458 1457 1456 1455 1454 1452 1452 1451 1450 1450 1449 1449 1448 1448 1448 1448 1448 1449 1449 1450 1449 1449 1449 1449 1448 1448 1448 1447 1447 1446 1445 1445 1444
1463 1463 1462 1462 1461 1460 1459 1458 1457 1456 1454 1453 1452 1451 1449 1448 1447 1446 1446 1445 1445 1444 1443 1443 1443 1443 1443 1444 1445 1445 1444 1444 1444 1444 1444 1443 1443 1442 1442 1441 1440 1439 1439
1459 1459 1458 1458 1457 1456 1455 1454 1452 1451 1450 1448 1447 1446 1445 1444 1443 1442 1441 1440 1440 1439 1439 1439 1439 1439 1439 1439 1440 1440 1439 1439 1439 1439 1438 1438 1438 1438 1437 1436 1435 1434 1433
1455 1455 1454 1453 1452 1452 1451 1449 1448 1447 1446 1444 1443 1442 1441 1440 1439 1438 1437 1436 1435 1435 1434 1434 1434 1434 1434 1434 1435 1435 1435 1434 1434 1433 1433 1433 1433 1432 1432 1431 1430 1429 1428
1451 1450 1449 1448 1448 1447 1446 1444 1443 1442 1441 1440 1439 1438 1436 1435 1435 1434 1433 1432 1431 1431 1430 1430 1430 1430 1430 1430 1429 1430 1430 1430 1429 1428 1428 1428 1428 1427 1426 1425 1425 1424 1423
1446 1445 1445 1444 1443 1442 1441 1440 1439 1438 1437 1435 1434 1433 1432 1431 1430 1429 1428 1428 1428 1427 1426 1426 1425 1425 1425 1425 1425 1425 1425 1425 1424 1423 1423 1423 1422 1422 1421 1420 1419 1419 1418
1441 1441 1440 1439 1438 1437 1437 1435 1434 1433 1432 1431 1430 1429 1428 1427 1426 1426 1425 1424 1424 1423 1422 1422 1421 1421 1421 1420 1420 1420 1420 1420 1419 1419 1418 1418 1417 1417 1416 1415 1414 1413 1413
1437 1436 1435 1434 1434 1433 1432 1431 1430 1429 1428 1427 1426 1426 1424 1423 1422 1422 1421 1420 1420 1419 1418 1418 1417 1416 1415 1416 1416 1416 1415 1415 1415 1414 1413 1413 1412 1411 1410 1409 1409 1408 1407
1433 1432 1431 1430 1429 1428 1427 1426 1425 1424 1423 1423 1422 1422 1421 1420 1419 1418 1417 1417 1416 1415 1415 1414 1413 1412 1412 1412 1411 1411 1411 1411 1411 1410 1408 1408 1407 1406 1406 1405 1404 1403 1403